TimePST,TemperatureF,Dew PointF,Humidity,Sea Level PressureIn,VisibilityMPH,Wind Direction,Wind SpeedMPH,Gust SpeedMPH,PrecipitationIn,Events,Conditions,WindDirDegrees,DateUTC
12:15 AM,42.8,39.2,87,30.27,10.0,East,9.2,-,N/A,,Scattered Clouds,100,2012-11-23 08:15:00
12:35 AM,42.8,39.2,87,30.26,10.0,East,9.2,-,N/A,,Clear,100,2012-11-23 08:35:00
12:55 AM,42.8,39.2,87,30.25,10.0,ESE,8.1,-,N/A,,Clear,110,2012-11-23 08:55:00
1:15 AM,42.8,37.4,81,30.25,10.0,ESE,5.8,-,N/A,,Clear,110,2012-11-23 09:15:00
1:35 AM,44.6,37.4,76,30.25,10.0,East,5.8,-,N/A,,Scattered Clouds,100,2012-11-23 09:35:00
1:55 AM,44.6,39.2,81,30.26,10.0,ESE,3.5,-,N/A,,Mostly Cloudy,110,2012-11-23 09:55:00
2:15 AM,44.6,39.2,81,30.25,10.0,ESE,6.9,-,N/A,,Overcast,110,2012-11-23 10:15:00
2:35 AM,44.6,41.0,87,30.25,10.0,ESE,5.8,-,N/A,,Overcast,110,2012-11-23 10:35:00
2:55 AM,44.6,41.0,87,30.26,10.0,ESE,4.6,-,N/A,,Overcast,110,2012-11-23 10:55:00
3:15 AM,46.4,42.8,87,30.25,10.0,SE,4.6,-,N/A,,Mostly Cloudy,140,2012-11-23 11:15:00
3:35 AM,46.4,42.8,87,30.24,10.0,SE,6.9,-,N/A,,Mostly Cloudy,140,2012-11-23 11:35:00
3:55 AM,50.0,44.6,82,30.23,10.0,SSE,9.2,-,N/A,,Overcast,150,2012-11-23 11:55:00
4:15 AM,51.8,44.6,76,30.24,10.0,SSE,8.1,-,N/A,,Overcast,150,2012-11-23 12:15:00
4:35 AM,51.8,44.6,76,30.22,10.0,SSE,8.1,-,N/A,,Overcast,150,2012-11-23 12:35:00
4:55 AM,51.8,44.6,76,30.22,10.0,SSE,6.9,-,N/A,,Overcast,160,2012-11-23 12:55:00
5:15 AM,51.8,44.6,76,30.23,10.0,SSE,4.6,-,N/A,,Overcast,160,2012-11-23 13:15:00
5:35 AM,51.8,44.6,76,30.23,10.0,SSE,8.1,-,N/A,,Overcast,150,2012-11-23 13:35:00
5:55 AM,51.8,44.6,76,30.22,10.0,SSE,6.9,-,N/A,,Overcast,150,2012-11-23 13:55:00
6:15 AM,53.6,46.4,77,30.22,10.0,SE,6.9,-,N/A,,Overcast,140,2012-11-23 14:15:00
6:35 AM,53.6,46.4,77,30.22,10.0,SSE,6.9,-,N/A,,Overcast,150,2012-11-23 14:35:00
6:55 AM,53.6,46.4,77,30.22,10.0,SSE,5.8,-,N/A,,Overcast,150,2012-11-23 14:55:00
7:15 AM,53.6,46.4,77,30.22,10.0,SSE,5.8,-,N/A,,Overcast,160,2012-11-23 15:15:00
7:35 AM,53.6,46.4,77,30.22,10.0,SE,6.9,-,N/A,,Overcast,140,2012-11-23 15:35:00
7:55 AM,53.6,46.4,77,30.22,10.0,SSE,8.1,-,N/A,,Overcast,150,2012-11-23 15:55:00
8:15 AM,53.6,46.4,77,30.22,10.0,SSE,8.1,-,N/A,,Overcast,150,2012-11-23 16:15:00
8:35 AM,53.6,46.4,77,30.21,10.0,SE,9.2,-,N/A,,Overcast,140,2012-11-23 16:35:00
8:55 AM,53.6,48.2,82,30.21,10.0,SSE,8.1,-,N/A,,Overcast,150,2012-11-23 16:55:00
9:15 AM,53.6,48.2,82,30.22,10.0,SSE,6.9,-,N/A,,Overcast,160,2012-11-23 17:15:00
9:35 AM,55.4,48.2,77,30.21,10.0,SSE,8.1,-,N/A,,Overcast,160,2012-11-23 17:35:00
9:55 AM,55.4,48.2,77,30.21,10.0,SSE,8.1,-,N/A,,Overcast,160,2012-11-23 17:55:00
10:15 AM,55.4,48.2,77,30.21,10.0,SSE,9.2,-,N/A,,Overcast,150,2012-11-23 18:15:00
10:35 AM,55.4,48.2,77,30.21,10.0,SSE,8.1,-,N/A,,Overcast,160,2012-11-23 18:35:00
10:55 AM,55.4,50.0,82,30.21,10.0,South,9.2,-,N/A,,Overcast,180,2012-11-23 18:55:00
11:15 AM,55.4,50.0,82,30.21,10.0,South,17.3,29.9,N/A,,Light Drizzle,180,2012-11-23 19:15:00
11:35 AM,57.2,50.0,77,30.21,10.0,SSW,20.7,29.9,N/A,,Light Drizzle,200,2012-11-23 19:35:00
11:55 AM,55.4,50.0,82,30.21,10.0,South,19.6,28.8,N/A,Rain,Rain,190,2012-11-23 19:55:00
12:15 PM,53.6,50.0,88,-9999,5.0,South,19.6,26.5,0.01,Rain,Rain,190,2012-11-23 20:15:00
12:35 PM,53.6,50.0,88,30.21,3.0,SSW,17.3,29.9,0.03,Rain,Rain,200,2012-11-23 20:35:00
12:55 PM,53.6,50.0,88,30.19,3.0,South,16.1,25.3,0.06,Rain,Light Rain,190,2012-11-23 20:55:00
1:15 PM,53.6,51.8,94,30.19,3.0,South,18.4,24.2,0.02,Rain,Light Rain,190,2012-11-23 21:15:00
1:35 PM,53.6,50.0,88,30.19,4.0,South,20.7,29.9,0.04,Rain,Light Rain,190,2012-11-23 21:35:00
1:55 PM,53.6,50.0,88,30.17,4.0,South,18.4,28.8,0.06,Rain,Light Rain,180,2012-11-23 21:55:00
2:15 PM,53.6,50.0,88,30.16,5.0,South,24.2,31.1,N/A,Rain,Rain,190,2012-11-23 22:15:00
2:35 PM,51.8,50.0,94,30.17,5.0,South,20.7,31.1,0.01,Rain,Light Rain,190,2012-11-23 22:35:00
2:55 PM,51.8,50.0,94,30.16,5.0,South,24.2,32.2,0.02,Rain,Light Rain,180,2012-11-23 22:55:00
3:15 PM,51.8,50.0,94,30.16,3.0,South,21.9,31.1,0.01,Rain,Light Rain,190,2012-11-23 23:15:00
3:35 PM,51.8,50.0,94,30.15,4.0,South,25.3,33.4,0.03,Rain,Light Rain,190,2012-11-23 23:35:00
3:55 PM,51.8,50.0,94,30.15,3.0,South,23.0,31.1,0.04,Rain,Light Rain,190,2012-11-23 23:55:00
4:35 PM,51.8,50.0,94,30.15,2.0,SSW,26.5,32.2,0.08,Rain,Rain,200,2012-11-24 00:35:00
4:55 PM,51.8,50.0,94,30.15,2.5,South,24.2,35.7,0.15,Rain,Rain,190,2012-11-24 00:55:00
5:15 PM,51.8,50.0,94,30.15,3.0,South,24.2,36.8,0.04,Rain,Rain,190,2012-11-24 01:15:00
5:35 PM,51.8,50.0,94,30.15,4.0,SSW,24.2,33.4,0.06,Rain,Light Rain,200,2012-11-24 01:35:00
5:55 PM,51.8,51.8,100,30.16,5.0,South,23.0,32.2,0.08,Rain,Light Rain,190,2012-11-24 01:55:00
6:15 PM,51.8,51.8,100,30.16,5.0,South,23.0,29.9,0.01,Rain,Rain,190,2012-11-24 02:15:00
6:35 PM,51.8,51.8,100,30.16,4.0,SSW,18.4,31.1,0.03,Rain,Rain,200,2012-11-24 02:35:00
6:55 PM,51.8,51.8,100,30.16,4.0,South,23.0,29.9,0.06,Rain,Rain,190,2012-11-24 02:55:00
7:15 PM,51.8,51.8,100,30.16,5.0,SSW,21.9,29.9,0.03,Rain,Rain,200,2012-11-24 03:15:00
7:35 PM,51.8,51.8,100,30.17,3.0,SSW,21.9,27.6,0.07,Rain,Rain,200,2012-11-24 03:35:00
7:55 PM,51.8,51.8,100,30.17,2.5,South,18.4,26.5,0.14,Rain,Heavy Rain,190,2012-11-24 03:55:00
8:15 PM,51.8,51.8,100,30.18,4.0,SSW,20.7,25.3,0.03,Rain,Rain,200,2012-11-24 04:15:00
8:35 PM,51.8,51.8,100,30.18,4.0,SSW,15.0,25.3,0.05,Rain,Light Rain,200,2012-11-24 04:35:00
8:55 PM,51.8,51.8,100,30.19,4.0,SSW,15.0,21.9,0.07,Rain,Light Rain,210,2012-11-24 04:55:00
9:15 PM,53.6,51.8,94,30.18,4.0,SSW,16.1,-,0.03,Rain,Light Rain,200,2012-11-24 05:15:00
9:35 PM,53.6,51.8,94,30.19,5.0,SSW,17.3,21.9,0.06,Rain,Rain,200,2012-11-24 05:35:00
9:55 PM,53.6,51.8,94,30.19,5.0,South,17.3,-,0.09,Rain,Rain,190,2012-11-24 05:55:00
10:15 PM,53.6,51.8,94,30.19,5.0,South,18.4,-,0.02,Rain,Light Rain,190,2012-11-24 06:15:00
10:35 PM,53.6,51.8,94,30.19,3.0,South,12.7,20.7,0.04,Rain,Rain,190,2012-11-24 06:35:00
10:55 PM,53.6,51.8,94,30.19,3.0,SSW,13.8,-,0.06,Rain,Rain,200,2012-11-24 06:55:00
11:15 PM,53.6,51.8,94,30.20,2.5,SW,9.2,-,0.03,Rain,Rain,230,2012-11-24 07:15:00
11:35 PM,51.8,51.8,100,30.20,2.0,WNW,4.6,-,0.07,Rain,Rain,290,2012-11-24 07:35:00
11:55 PM,51.8,51.8,100,30.21,2.0,NW,6.9,-,0.10,Rain,Light Rain,310,2012-11-24 07:55:00